sat.trackr.live / text

‹ back to catalog

SKYSAT-A

NORAD 39418 · 2013-066C

PAYLOAD ACTIVE UNKNOWN

§ Identity

Operator
Country
US
Launch date
2013-11-21
Launch site
DLS
Launch vehicle
Mass (kg)
RCS (m²)
0.31

Purposes: earth_obs

External: N2YO · Heavens-Above · Gunter

§ Orbital elements

Epoch: 2026-09-20T01:59:54.995424Z

Period
95.15 min
Inclination
97.3721°
Eccentricity
0.0020809
Mean motion
15.13419610 rev/d
Perigee alt
511.4 km
Apogee alt
540.1 km
Semi-major
6,903.9 km
B*
1.0433e-4
RAAN
309.4352°
Arg perigee
350.3996°
Mean anomaly
9.6835°
Rev number
70,283

§ Raw data

SKYSAT-A1 39418U 13066C   26263.08327541  .00001808  00000+0  10433-3 0  99902 39418  97.3721 309.4352 0020809 350.3996   9.6835 15.13419610702838

JSON: /api/v1/satellites/39418 · /tle

For live sub-satellite position, see the globe view (requires WebGL).

§ Visibility from observer

Set your observer location to see the next 7 days of passes ≥ 10°. The values pass through the URL so the page stays shareable.

No JS? Fill the form by hand. The geolocation button needs JavaScript.